| time (UTC) | temp C | wind direction | speed KPH | gust KPH | rain 1hr cm | rain 24hr cm | rain mn cm | humidity % | barometer mb |
| 20260507073008 | 12 | 180 | 0.0 | 0.0 | 0.05 | 0.58 | 0.08 | 1 | 1007.1 |
| 20260507071503 | 12 | 180 | 0.0 | 0.0 | 0.00 | 0.53 | 0.03 | 1 | 1006.5 |
| 20260507070105 | 12 | 180 | 0.0 | 0.0 | 0.00 | 0.53 | 0.03 | 1 | 1006.4 |
| 20260507064628 | 12 | 180 | 0.0 | 0.0 | 0.00 | 0.53 | 0.03 | 1 | 1006.2 |
| 20260507063053 | 12 | 180 | 0.0 | 0.0 | 0.00 | 0.53 | 0.03 | 1 | 1006.4 |
| 20260507061546 | 12 | 180 | 0.0 | 0.0 | 0.00 | 0.53 | 0.03 | 1 | 1006.4 |
| 20260507060059 | 12 | 180 | 0.0 | 0.0 | 0.00 | 0.53 | 0.03 | 1 | 1006.5 |
| 20260507054543 | 12 | 180 | 0.0 | 0.0 | 0.00 | 0.53 | 0.03 | 1 | 1006.8 |
| 20260507053039 | 12 | 180 | 0.0 | 0.0 | 0.00 | 0.53 | 0.03 | 1 | 1007.2 |
| 20260507051531 | 12 | 180 | 0.0 | 0.0 | 0.00 | 0.53 | 0.03 | 1 | 1007.3 |
| 20260507050038 | 12 | 180 | 0.0 | 0.0 | 0.03 | 0.53 | 0.03 | 1 | 1007.4 |
| 20260507044522 | 12 | 180 | 0.0 | 0.0 | 0.03 | 0.53 | 0.03 | 1 | 1007.6 |
| 20260507043017 | 12 | 180 | 0.0 | 8.0 | 0.03 | 0.53 | 0.03 | 1 | 1007.3 |
| 20260507041522 | 12 | 230 | 0.0 | 4.8 | 0.03 | 0.53 | 0.03 | 1 | 1007.4 |
| 20260507040009 | 12 | 232 | 0.0 | 4.8 | 0.00 | 0.51 | 0.51 | 1 | 1007.5 |
| 20260507034505 | 12 | 259 | 1.6 | 8.0 | 0.00 | 0.51 | 0.51 | 1 | 1007.7 |
| 20260507033004 | 12 | 220 | 0.0 | 6.4 | 0.00 | 0.51 | 0.51 | 1 | 1007.6 |
| 20260507031600 | 12 | 223 | 0.0 | 9.7 | 0.00 | 0.51 | 0.51 | 1 | 1007.7 |
| 20260507030056 | 12 | 205 | 0.0 | 9.7 | 0.00 | 0.51 | 0.51 | 1 | 1007.6 |
| 20260507024552 | 12 | 215 | 0.0 | 8.0 | 0.00 | 0.51 | 0.51 | 1 | 1007.7 |
| 20260507023047 | 12 | 244 | 0.0 | 11.3 | 0.00 | 0.51 | 0.51 | 1 | 1007.9 |
| 20260507021544 | 12 | 240 | 0.0 | 9.7 | 0.00 | 0.51 | 0.51 | 1 | 1008.0 |
| 20260507020044 | 12 | 196 | 1.6 | 9.7 | 0.00 | 0.51 | 0.51 | 1 | 1007.8 |
| 20260507014538 | 12 | 273 | 1.6 | 12.9 | 0.00 | 0.51 | 0.51 | 1 | 1007.7 |
| 20260507013030 | 12 | 220 | 3.2 | 11.3 | 0.00 | 0.51 | 0.51 | 1 | 1008.1 |
| 20260507011526 | 12 | 188 | 0.0 | 11.3 | 0.00 | 0.51 | 0.51 | 1 | 1008.3 |
| 20260507010026 | 12 | 228 | 3.2 | 17.7 | 0.00 | 0.51 | 0.51 | 1 | 1008.5 |
| 20260507004519 | 12 | 217 | 0.0 | 16.1 | 0.00 | 0.51 | 0.51 | 1 | 1008.5 |
| 20260507003012 | 12 | 211 | 1.6 | 12.9 | 0.00 | 0.51 | 0.51 | 1 | 1008.3 |
| 20260507001511 | 12 | 276 | 4.8 | 12.9 | 0.00 | 0.51 | 0.51 | 1 | 1008.2 |
| 20260507000003 | 12 | 203 | 4.8 | 9.7 | 0.00 | 0.51 | 0.51 | 1 | 1008.1 |
| 20260506234501 | 12 | 197 | 6.4 | 19.3 | 0.00 | 0.51 | 0.51 | 1 | 1008.2 |
| 20260506233059 | 12 | 238 | 4.8 | 16.1 | 0.03 | 0.51 | 0.51 | 1 | 1008.1 |
| 20260506231607 | 12 | 271 | 1.6 | 17.7 | 0.10 | 0.51 | 0.51 | 1 | 1008.1 |
| 20260506230105 | 12 | 293 | 4.8 | 14.5 | 0.15 | 0.51 | 0.51 | 1 | 1008.2 |
| 20260506224544 | 12 | 189 | 4.8 | 32.2 | 0.23 | 0.51 | 0.51 | 1 | 1008.0 |
| 20260506223038 | 12 | 232 | 3.2 | 16.1 | 0.25 | 0.48 | 0.48 | 1 | 1007.9 |
| 20260506221538 | 12 | 232 | 6.4 | 25.7 | 0.20 | 0.41 | 0.41 | 1 | 1008.0 |
| 20260506220036 | 12 | 266 | 4.8 | 24.1 | 0.18 | 0.36 | 0.36 | 1 | 1008.1 |
| 20260506214526 | 12 | 264 | 3.2 | 22.5 | 0.10 | 0.28 | 0.28 | 1 | 1008.4 |
| 20260506213022 | 12 | 157 | 6.4 | 16.1 | 0.08 | 0.23 | 0.23 | 1 | 1008.5 |
| 20260506211518 | 13 | 236 | 4.8 | 19.3 | 0.05 | 0.20 | 0.20 | 1 | 1008.6 |
| 20260506210014 | 13 | 246 | 3.2 | 24.1 | 0.05 | 0.18 | 0.18 | 1 | 1008.7 |
| 20260506204509 | 13 | 268 | 6.4 | 22.5 | 0.05 | 0.18 | 0.18 | 1 | 1008.8 |
| 20260506203004 | 13 | 244 | 3.2 | 20.9 | 0.05 | 0.15 | 0.15 | 1 | 1009.0 |
| 20260506201601 | 13 | 224 | 3.2 | 14.5 | 0.10 | 0.15 | 0.15 | 1 | 1009.1 |
| 20260506200056 | 13 | 189 | 8.0 | 20.9 | 0.13 | 0.13 | 0.13 | 1 | 1009.1 |
| 20260506194552 | 13 | 231 | 6.4 | 19.3 | 0.13 | 0.13 | 0.13 | 1 | 1009.3 |
| 20260506193046 | 13 | 250 | 6.4 | 20.9 | 0.10 | 0.10 | 0.10 | 1 | 1009.3 |
| 20260506191548 | 14 | 221 | 6.4 | 17.7 | 0.05 | 0.05 | 0.05 | 1 | 1009.5 |
| 20260506190040 | 15 | 204 | 4.8 | 19.3 | 0.00 | 0.00 | 0.00 | 1 | 1009.7 |
| 20260506184538 | 15 | 263 | 4.8 | 25.7 | 0.00 | 0.00 | 0.00 | 1 | 1009.9 |
| 20260506183028 | 15 | 263 | 8.0 | 43.5 | 0.00 | 0.00 | 0.00 | 1 | 1010.0 |
| 20260506181524 | 15 | 201 | 6.4 | 38.6 | 0.00 | 0.00 | 0.00 | 1 | 1010.3 |
| 20260506180119 | 16 | 205 | 9.7 | 32.2 | 0.00 | 0.00 | 0.00 | 1 | 1010.2 |
| 20260506174523 | 16 | 224 | 11.3 | 30.6 | 0.00 | 0.00 | 0.00 | 1 | 1010.6 |
| 20260506173011 | 16 | 209 | 11.3 | 29.0 | 0.00 | 0.00 | 0.00 | 1 | 1010.7 |
| 20260506171508 | 17 | 175 | 8.0 | 24.1 | 0.00 | 0.00 | 0.00 | 1 | 1011.0 |
| 20260506170001 | 17 | 246 | 8.0 | 32.2 | 0.00 | 0.00 | 0.00 | 1 | 1010.8 |
| 20260506164557 | 17 | 232 | 8.0 | 33.8 | 0.00 | 0.00 | 0.00 | 1 | 1011.1 |
| 20260506163052 | 16 | 183 | 6.4 | 22.5 | 0.00 | 0.00 | 0.00 | 1 | 1011.4 |
| 20260506161548 | 16 | 257 | 8.0 | 35.4 | 0.00 | 0.00 | 0.00 | 1 | 1011.5 |
| 20260506160058 | 16 | 267 | 8.0 | 30.6 | 0.00 | 0.00 | 0.00 | 1 | 1011.8 |
| 20260506154540 | 18 | 239 | 6.4 | 30.6 | 0.00 | 0.00 | 0.00 | 1 | 1011.8 |
| 20260506153037 | 18 | 267 | 6.4 | 25.7 | 0.00 | 0.00 | 0.00 | 1 | 1011.8 |
| 20260506151539 | 18 | 299 | 12.9 | 37.0 | 0.00 | 0.00 | 0.00 | 1 | 1011.8 |
| 20260506150029 | 17 | 273 | 11.3 | 35.4 | 0.00 | 0.00 | 0.00 | 1 | 1012.0 |
| 20260506144525 | 17 | 188 | 9.7 | 22.5 | 0.00 | 0.00 | 0.00 | 1 | 1012.1 |
| 20260506143021 | 17 | 238 | 6.4 | 30.6 | 0.00 | 0.00 | 0.00 | 1 | 1012.0 |
| 20260506141520 | 16 | 279 | 6.4 | 30.6 | 0.00 | 0.00 | 0.00 | 1 | 1012.0 |
| 20260506140026 | 16 | 202 | 11.3 | 38.6 | 0.00 | 0.00 | 0.00 | 1 | 1011.7 |
| 20260506134515 | 16 | 280 | 9.7 | 22.5 | 0.00 | 0.00 | 0.00 | 1 | 1011.8 |
| 20260506133014 | 17 | 242 | 8.0 | 25.7 | 0.00 | 0.00 | 0.00 | 1 | 1012.0 |
| 20260506131507 | 16 | 250 | 8.0 | 19.3 | 0.00 | 0.00 | 0.00 | 1 | 1012.2 |
| 20260506130002 | 16 | 251 | 6.4 | 24.1 | 0.00 | 0.00 | 0.00 | 1 | 1012.4 |
| 20260506124558 | 16 | 227 | 8.0 | 20.9 | 0.00 | 0.00 | 0.00 | 1 | 1012.2 |
| 20260506123054 | 15 | 214 | 4.8 | 22.5 | 0.00 | 0.00 | 0.00 | 1 | 1012.1 |
| 20260506121553 | 15 | 227 | 8.0 | 37.0 | 0.00 | 0.00 | 0.00 | 1 | 1012.4 |
| 20260506120048 | 15 | 215 | 6.4 | 19.3 | 0.00 | 0.00 | 0.00 | 1 | 1012.4 |
| 20260506114551 | 14 | 210 | 9.7 | 16.1 | 0.00 | 0.00 | 0.00 | 1 | 1012.5 |
| 20260506113041 | 14 | 223 | 4.8 | 19.3 | 0.00 | 0.00 | 0.00 | 1 | 1012.7 |
| 20260506111539 | 13 | 250 | 6.4 | 20.9 | 0.00 | 0.00 | 0.00 | 1 | 1012.6 |
| 20260506110036 | 13 | 219 | 4.8 | 24.1 | 0.00 | 0.00 | 0.00 | 1 | 1012.6 |
| 20260506104534 | 13 | 262 | 4.8 | 20.9 | 0.00 | 0.00 | 0.00 | 1 | 1012.4 |
| 20260506103029 | 13 | 242 | 6.4 | 16.1 | 0.00 | 0.00 | 0.00 | 1 | 1012.3 |
| 20260506101521 | 13 | 191 | 3.2 | 22.5 | 0.00 | 0.00 | 0.00 | 1 | 1012.2 |
| 20260506100022 | 13 | 214 | 4.8 | 20.9 | 0.00 | 0.00 | 0.00 | 1 | 1012.2 |
| 20260506094513 | 13 | 221 | 8.0 | 17.7 | 0.00 | 0.00 | 0.00 | 1 | 1012.1 |
| 20260506093007 | 13 | 213 | 3.2 | 22.5 | 0.00 | 0.00 | 0.00 | 1 | 1012.1 |
| 20260506091503 | 13 | 239 | 6.4 | 17.7 | 0.00 | 0.00 | 0.00 | 1 | 1012.4 |
| 20260506090058 | 14 | 298 | 6.4 | 25.7 | 0.00 | 0.00 | 0.00 | 1 | 1012.3 |
| 20260506084600 | 14 | 164 | 6.4 | 22.5 | 0.00 | 0.00 | 0.00 | 1 | 1012.6 |
| 20260506083050 | 14 | 266 | 6.4 | 19.3 | 0.00 | 0.00 | 0.00 | 1 | 1012.6 |
| 20260506081548 | 14 | 159 | 6.4 | 27.4 | 0.00 | 0.00 | 0.00 | 1 | 1012.7 |